Regional Weather Roundup
Issued by NWS Kansas City/Pleasant Hill, MO

Home | Current Version | Previous Version | Graphics & Text | Print | Product List | Glossary Off
Versions: 1 2 3 4 5 6 7 8 9 10 11 12 13 14 15 16 17 18 19 20 21 22 23 24 25 26 27 28 29 30 31 32 33 34 35 36 37 38 39 40 41 42 43 44 45 46 47 48 49 50

838
ASUS43 KEAX 232310
RWREAX

WEATHER ROUNDUP FOR EASTERN KANSAS AND NORTHWEST MISSOURI
NATIONAL WEATHER SERVICE KANSAS CITY/PLEASANT HILL MO
600 PM CDT SUN APR 23 2017

KSZ040-057-103>105-MOZ028-029-037-043-240000-
...KANSAS CITY METROPOLITAN AREA...

CITY           SKY/WX    TMP DP  RH WIND       PRES   REMARKS
K.C. INTL      MOSUNNY   69  36  29 S9        30.02F
K.C. DOWNTOWN  SUNNY     72  31  22 CALM      30.01F
LEES SUMMIT    SUNNY     71  31  22 S7        30.05F
OLATHE - IXD   SUNNY     69  34  27 VRB5      30.04F
OLATHE - OJC   SUNNY     67  31  26 S5        30.04F
LAWRENCE       SUNNY     70  36  28 S12       30.02F

$$

MOZ001>008-011>017-020>025-030>033-038>040-044>046-053-054-240000-
...NORTHERN AND CENTRAL MISSOURI...

CITY           SKY/WX    TMP DP  RH WIND       PRES   REMARKS
ST. JOSEPH     SUNNY     72  32  23 S13       29.99F
MOSBY          CLEAR     70  30  23 CALM      30.03F
WHITEMAN AFB   SUNNY     69  33  26 CALM      30.04F
CLINTON        SUNNY     68  34  28 CALM      30.06F
SEDALIA        NOT AVBL
WARSAW         NOT AVBL
CHILLICOTHE      N/A     71  30  21 VRB7      30.03F
KIRKSVILLE     SUNNY     70  33  25 SE8       30.03F

$$

MOZ041-047>049-056>058-063>065-088>090-097-240000-
...EASTERN AND SOUTHERN MISSOURI...

CITY           SKY/WX    TMP DP  RH WIND       PRES   REMARKS
ST. LOUIS INTL SUNNY     73  29  19 NE13      30.01F
SPIRIT OF STL  SUNNY     71  28  20 NE9       30.01S
COLUMBIA       SUNNY     71  32  23 NE5       30.05S
JEFFERSON CITY SUNNY     74  29  19 VRB7      30.04S
ROLLA          SUNNY     69  34  27 N9        30.02S
OSAGE BEACH    SUNNY     70  30  22 VRB3      30.06R
SPRINGFIELD    SUNNY     68  34  28 N13       30.05S
BRANSON        SUNNY     68  36  30 N12       30.04S
JOPLIN         SUNNY     66  40  38 N8        30.07F
WEST PLAINS    SUNNY     69  32  25 N6        30.01R

$$

IAZ060-094-KSZ022-034>040-054-083-096-NEZ052-066-093-240000-
...KANSAS...SOUTHEAST NEBRASKA AND IOWA...

CITY           SKY/WX    TMP DP  RH WIND       PRES   REMARKS
TOPEKA         SUNNY     69  35  28 S9G18     30.01F
MANHATTAN      SUNNY     68  35  29 SW12      30.00F
EMPORIA        SUNNY     68  38  33 SE9       30.03F
CHANUTE        SUNNY     69  36  29 NW3       30.07F
WICHITA        MOSUNNY   67  37  33 SE13      30.02F
OMAHA          CLOUDY    72  27  18 S18       29.93F
LINCOLN        MOSUNNY   71  30  21 S22G31    29.94F
FALLS CITY     SUNNY     68  34  28 S9        29.98F
LAMONI         CLOUDY    69  33  26 S12       30.01F
DES MOINES     CLOUDY    70  29  21 S12       29.99F

$$





USA.gov is the U.S. government's official web portal to all federal, state and local government web resources and services.